STARLINK-36898

Last updated on Mon Mar 30 2026 00:02:05 GMT+0000 (Coordinated Universal Time)

1 68002U 26039S 26088.16668981 .00041870 00000+0 14842-2 0 9995 2 68002 42.9995 299.2438 0002286 261.2704 275.5198 15.28413340 6007
UTC large
Height (km)
Speed (km/s)
/
Latitude / Longitude
Inclination (degrees)
Orbital Period (minutes)
Azimuth
Elevation
Range (km)
Doppler Factor

Next 0 passes for location: London (51.5072 / 0.1276)

Sorry there are no passes over London.